Weather History for KTKV - January, 2014

Change the Weather History Date:

Friday, January 3, 2014

  Actual Average (KRHI) Record (KRHI)
Temperature  
Mean Temperature -4 °F 13 °F  
Max Temperature 16 °F 22 °F 42 °F (1998)
Min Temperature -25 °F 4 °F -29 °F (1981)
Degree Days  
Heating Degree Days 70 52  
Month to date heating degree days 156  
Since 1 July heating degree days 3782  
Cooling Degree Days 0 0  
Month to date cooling degree days 0  
Year to date cooling degree days 0  
Moisture  
Dew Point -8 °F    
Average Humidity 74    
Maximum Humidity 81    
Minimum Humidity 63    
Precipitation  
Precipitation 0.00 in 0.04 in 0.27 in (1999)
Month to date precipitation 0.12  
Year to date precipitation 0.12  
Snow  
Snow 0.00 in - 8.00 in (1937)
Month to date snowfall  
Since 1 July snowfall  
Snow Depth -    
Sea Level Pressure  
Sea Level Pressure 29.90 in    
Wind  
Wind Speed 3 mph (South)    
Max Wind Speed 10 mph    
Max Gust Speed 21 mph    
Visibility 10 miles    
Events Snow    
T = Trace of Precipitation, MM = Missing Value Source: NWS Daily Summary

Daily Weather History Graph

Daily Weather History Graph

Search for Another Location

Airport or City:

Trip Planner

Search our weather history database for the weather conditions in past years. The results will help you decide how hot, cold, wet, or windy it might be!

Date:

Astronomy

Jan. 03, 2014 Rise Set
Actual Time 7:39 AM CST 4:28 PM CST
Civil Twilight 7:05 AM CST 5:02 PM CST
Nautical Twilight 6:27 AM CST 5:39 PM CST
Astronomical Twilight 5:52 AM CST 6:15 PM CST
Moon 8:56 AM CST (1/3) 7:47 PM CST (1/3)
Length of Visible Light 9h 57m
Length of Day
8h 49m
Waxing Crescent, 8% of the Moon is Illuminated
Jan 3
Waxing Crescent
Jan 7
First Quarter
Jan 15
Full
Jan 23
Last Quarter
Jan 30
New

Hourly Weather History & Observations

Time (CST) Temp. Windchill Dew Point Humidity Pressure Visibility Wind Dir Wind Speed Gust Speed Precip Events Conditions
12:15 AM -24.5 °F - -30.5 °F 74% 30.28 in 10.0 mi Calm Calm - N/A   Clear
12:35 AM -24.0 °F - -29.7 °F 74% 30.28 in 10.0 mi Calm Calm - N/A   Clear
12:55 AM -23.4 °F - -29.2 °F 74% 30.27 in 10.0 mi Calm Calm - N/A   Clear
1:15 AM -24.2 °F - -30.1 °F 74% 30.26 in 10.0 mi Calm Calm - N/A   Clear
1:35 AM -23.4 °F - -29.4 °F 74% 30.26 in 10.0 mi Calm Calm - N/A   Clear
1:55 AM -25.2 °F - -31.5 °F 72% 30.26 in 10.0 mi Calm Calm - N/A   Clear
2:15 AM -25.6 °F - -31.5 °F 74% 30.26 in 10.0 mi Calm Calm - N/A   Clear
2:35 AM -25.1 °F - -31.5 °F 72% 30.26 in 10.0 mi Calm Calm - N/A   Clear
2:55 AM -24.7 °F - -31.0 °F 72% 30.25 in 10.0 mi Calm Calm - N/A   Clear
3:15 AM -25.1 °F - -31.2 °F 73% 30.24 in 10.0 mi Calm Calm - N/A   Clear
3:35 AM -24.2 °F - -30.1 °F 74% 30.23 in 10.0 mi Calm Calm - N/A   Clear
3:55 AM -23.3 °F - -29.4 °F 73% 30.23 in 10.0 mi Calm Calm - N/A   Clear
4:15 AM -22.2 °F - -28.3 °F 73% 30.22 in 10.0 mi Calm Calm - N/A   Clear
4:35 AM -22.0 °F - -28.3 °F 73% 30.20 in 10.0 mi Calm Calm - N/A   Clear
4:55 AM -21.5 °F - -27.6 °F 73% 30.20 in 10.0 mi Calm Calm - N/A   Clear
5:15 AM -19.3 °F - -24.9 °F 76% 30.20 in 10.0 mi Calm Calm - N/A   Scattered Clouds
5:35 AM -16.4 °F - -21.8 °F 76% 30.19 in 10.0 mi Calm Calm - N/A   Mostly Cloudy
5:55 AM -11.4 °F - -16.2 °F 79% 30.18 in 10.0 mi Calm Calm - N/A   Mostly Cloudy
6:15 AM -10.5 °F - -15.3 °F 79% 30.17 in 10.0 mi Calm Calm - N/A   Mostly Cloudy
6:35 AM -9.8 °F - -14.8 °F 78% 30.17 in 10.0 mi Calm Calm - N/A   Scattered Clouds
6:55 AM -9.2 °F - -14.1 °F 79% 30.15 in 10.0 mi Calm Calm - N/A   Mostly Cloudy
7:15 AM -8.9 °F - -13.5 °F 80% 30.13 in 10.0 mi Calm Calm - N/A   Mostly Cloudy
7:35 AM -8.5 °F -17.6 °F -13.0 °F 81% 30.12 in 10.0 mi South 3.5 mph - N/A   Scattered Clouds
7:55 AM -7.2 °F -16.1 °F -11.7 °F 81% 30.12 in 10.0 mi SSE 3.5 mph - N/A   Clear
8:15 AM -6.2 °F -14.9 °F -10.7 °F 81% 30.12 in 10.0 mi SSE 3.5 mph - N/A   Scattered Clouds
8:35 AM -5.4 °F -18.0 °F -10.1 °F 80% 30.11 in 10.0 mi SSE 5.8 mph - N/A   Mostly Cloudy
8:55 AM -4.9 °F -17.4 °F -9.4 °F 81% 30.08 in 10.0 mi SSE 5.8 mph - N/A   Scattered Clouds
9:15 AM -3.8 °F -14.4 °F -8.5 °F 80% 30.08 in 10.0 mi SSE 4.6 mph - N/A   Mostly Cloudy
9:35 AM -2.4 °F -14.4 °F -7.1 °F 80% 30.07 in 10.0 mi South 5.8 mph - N/A   Overcast
9:55 AM -1.3 °F -13.1 °F -6.7 °F 78% 30.07 in 10.0 mi South 5.8 mph - N/A   Overcast
10:15 AM -0.4 °F -14.7 °F -6.0 °F 77% 30.04 in 10.0 mi SSE 8.1 mph - N/A   Overcast
10:35 AM 0.9 °F -10.5 °F -5.8 °F 74% 30.03 in 10.0 mi South 5.8 mph - N/A   Overcast
10:55 AM 1.4 °F -11.3 °F -5.8 °F 72% 29.98 in 10.0 mi SSE 6.9 mph - N/A   Overcast
11:15 AM 1.9 °F -10.6 °F -5.6 °F 71% 29.96 in 10.0 mi South 6.9 mph 17.3 mph N/A   Overcast
11:35 AM 2.7 °F -9.7 °F -5.1 °F 70% 29.95 in 10.0 mi South 6.9 mph - N/A   Overcast
11:55 AM 3.6 °F -8.7 °F -5.3 °F 67% 29.91 in 10.0 mi SSE 6.9 mph - N/A   Overcast
12:15 PM 4.1 °F -9.2 °F -5.1 °F 66% 29.89 in 10.0 mi South 8.1 mph - N/A   Overcast
12:35 PM 5.0 °F -10.0 °F -5.1 °F 63% 29.85 in 10.0 mi SSE 10.4 mph 18.4 mph N/A   Overcast
12:55 PM 5.9 °F -7.0 °F -4.0 °F 64% 29.84 in 10.0 mi South 8.1 mph - N/A   Overcast
1:15 PM 6.8 °F -6.9 °F -2.7 °F 65% 29.80 in 7.0 mi SSE 9.2 mph 18.4 mph N/A   Overcast
1:35 PM 7.3 °F -6.2 °F -2.0 °F 66% 29.79 in 7.0 mi South 9.2 mph 20.7 mph N/A   Overcast
1:55 PM 8.1 °F -4.3 °F -0.9 °F 67% 29.79 in 10.0 mi SSE 8.1 mph - N/A   Overcast
2:15 PM 9.0 °F -2.2 °F -0.4 °F 66% 29.76 in 10.0 mi South 6.9 mph - N/A   Overcast
2:35 PM 9.5 °F -4.4 °F 0.3 °F 66% 29.74 in 10.0 mi South 10.4 mph 18.4 mph N/A   Overcast
2:55 PM 9.5 °F -3.5 °F 0.7 °F 67% 29.71 in 10.0 mi SSE 9.2 mph 18.4 mph N/A   Overcast
3:15 PM 9.5 °F -1.5 °F 0.9 °F 68% 29.70 in 10.0 mi SSE 6.9 mph 16.1 mph N/A   Overcast
3:35 PM 9.5 °F -1.5 °F 0.9 °F 68% 29.69 in 10.0 mi SSE 6.9 mph 17.3 mph N/A   Mostly Cloudy
3:55 PM 9.5 °F -3.5 °F 1.0 °F 69% 29.68 in 10.0 mi SSE 9.2 mph 16.1 mph N/A   Mostly Cloudy
4:15 PM 9.5 °F -2.6 °F 1.4 °F 70% 29.67 in 10.0 mi SSE 8.1 mph 17.3 mph N/A   Mostly Cloudy
4:35 PM 10.0 °F -2.9 °F 2.1 °F 70% 29.66 in 10.0 mi South 9.2 mph 17.3 mph N/A   Mostly Cloudy
4:55 PM 10.4 °F -1.5 °F 2.5 °F 70% 29.66 in 10.0 mi South 8.1 mph - N/A   Overcast
5:15 PM 11.1 °F 0.4 °F 3.0 °F 70% 29.65 in 10.0 mi South 6.9 mph 19.6 mph N/A   Overcast
5:35 PM 11.1 °F -0.6 °F 3.2 °F 70% 29.64 in 10.0 mi South 8.1 mph - N/A   Overcast
5:55 PM 11.3 °F 1.9 °F 3.7 °F 72% 29.64 in 10.0 mi South 5.8 mph - N/A   Overcast
6:15 PM 11.5 °F 2.1 °F 4.1 °F 72% 29.63 in 10.0 mi SSE 5.8 mph - N/A   Overcast
6:35 PM 12.0 °F 1.5 °F 4.8 °F 73% 29.62 in 10.0 mi South 6.9 mph - N/A   Overcast
6:55 PM 12.6 °F 1.1 °F 5.7 °F 74% 29.62 in 10.0 mi South 8.1 mph 16.1 mph N/A   Overcast
7:15 PM 12.7 °F -0.4 °F 5.9 °F 74% 29.61 in 10.0 mi South 10.4 mph 16.1 mph N/A   Overcast
7:35 PM 12.7 °F 2.4 °F 6.3 °F 75% 29.60 in 10.0 mi South 6.9 mph 18.4 mph N/A   Overcast
7:55 PM 12.9 °F 1.6 °F 6.4 °F 75% 29.60 in 10.0 mi South 8.1 mph - N/A   Overcast
8:15 PM 13.1 °F 2.8 °F 6.8 °F 76% 29.59 in 10.0 mi South 6.9 mph - N/A   Overcast
8:35 PM 13.1 °F 0.9 °F 6.8 °F 76% 29.58 in 10.0 mi South 9.2 mph - N/A   Overcast
8:55 PM 13.5 °F 2.2 °F 7.3 °F 77% 29.58 in 10.0 mi South 8.1 mph - N/A   Overcast
9:15 PM 13.6 °F 4.6 °F 7.7 °F 77% 29.57 in 10.0 mi South 5.8 mph - N/A   Overcast
9:35 PM 13.8 °F 3.7 °F 7.7 °F 77% 29.56 in 10.0 mi South 6.9 mph 16.1 mph N/A   Overcast
9:55 PM 14.0 °F 5.1 °F 8.2 °F 78% 29.55 in 10.0 mi South 5.8 mph 17.3 mph N/A   Overcast
10:15 PM 14.2 °F 4.1 °F 8.6 °F 78% 29.54 in 10.0 mi South 6.9 mph - N/A   Overcast
10:35 PM 14.7 °F 3.8 °F 9.1 °F 79% 29.53 in 10.0 mi South 8.1 mph 16.1 mph N/A   Overcast
10:55 PM 15.3 °F 4.4 °F 9.5 °F 78% 29.52 in 10.0 mi South 8.1 mph 16.1 mph N/A   Overcast
11:15 PM 15.8 °F 8.6 °F 10.2 °F 79% 29.51 in 10.0 mi South 4.6 mph - N/A   Overcast
11:35 PM 16.2 °F 7.6 °F 10.4 °F 78% 29.51 in 10.0 mi South 5.8 mph 18.4 mph N/A   Overcast
11:55 PM 16.3 °F 4.9 °F 10.9 °F 79% 29.49 in 5.0 mi South 9.2 mph 16.1 mph N/A Snow Light Snow